Location: Laan Hart van Zuid
(52.2563°N, 6.7904°E)
Time: 14:18:37
(UTC+02:00)

BlueWalker 3 - Visible Passes

Search period start: 17 July 2025 00:00
Search period end: 27 July 2025 00:00
Orbit: 461 x 469 km, 53.2° (Epoch: 17 July)

Date Brightness Start Highest point End Pass type
(mag) Time Alt. Az. Time Alt. Az. Time Alt. Az.
17 Jul 2.2 01:04:55 10° W 01:08:23 40° SSW 01:08:54 38° S visible
17 Jul 1.9 22:54:33 10° W 22:58:14 79° N 23:01:54 10° E visible
18 Jul 2.1 00:32:18 10° WNW 00:35:50 46° SSW 00:36:56 34° SSE visible
18 Jul 2.0 22:21:57 10° W 22:25:38 77° N 22:29:18 10° E visible
18 Jul 2.0 23:59:41 10° WNW 00:03:17 52° SSW 00:05:03 26° SE visible
19 Jul 4.2 01:38:24 10° WSW 01:38:56 12° WSW 01:38:56 12° WSW visible
19 Jul 1.9 23:27:06 10° WNW 23:30:43 59° SSW 23:33:14 18° SE visible
20 Jul 3.8 01:05:30 10° W 01:07:07 15° WSW 01:07:07 15° WSW visible
20 Jul 1.8 22:54:29 10° WNW 22:58:08 66° SSW 23:01:28 12° ESE visible
21 Jul 3.5 00:32:41 10° W 00:35:20 19° SW 00:35:21 19° SW visible
21 Jul 1.8 22:21:52 10° WNW 22:25:31 73° SSW 22:29:11 10° ESE visible
21 Jul 3.3 23:59:56 10° W 00:02:49 22° SW 00:03:37 20° SSW visible
22 Jul 3.2 23:27:12 10° W 23:30:16 25° SW 23:31:56 18° S visible
23 Jul 3.0 22:54:29 10° W 22:57:43 29° SW 23:00:18 14° SSE visible
24 Jul 2.9 22:21:48 10° W 22:25:08 33° SSW 22:28:28 10° SSE visible
26 Jul 4.3 22:55:53 10° WSW 22:56:54 11° SW 22:57:54 10° SSW visible
